Simultaneous Nadir Overpasses (SNOs) Predictions

Prediction of SNOs between NOAA-19 and TERRA Satellite Orbit:

Table of predicted SNOs for the next 14.0 days since TLE Epoch: 2/27/2021
Index Date (NOAA-19) Time (NOAA-19) Lat,Lon (NOAA-19) SZA (NOAA-19 ) Date (TERRA) Time (TERRA) Lat,Lon (TERRA) SZA (TERRA ) Distance(km) Time Diff (sec)
1 02/27/2021 22:43:39 -80.08, 51.07 90.78 02/27/2021 22:44:37 -80.07, 51.02 90.77 1.04 58
2 02/27/2021 23:34:38 80.05,-141.39 89.21 02/27/2021 23:34:03 80.07,-141.31 89.22 2.58 35
3 03/02/2021 05:07:52 -80.08, -44.95 91.63 03/02/2021 05:07:47 -80.05, -44.95 91.66 3.18 5
4 03/04/2021 10:41:03 80.08, 51.84 87.54 03/04/2021 10:41:28 80.09, 51.98 87.57 3.10 25
5 03/04/2021 11:32:04 -80.06,-140.67 92.47 03/04/2021 11:30:56 -80.06,-140.65 92.50 0.46 68
6 03/06/2021 16:14:17 -80.08, 148.63 93.31 03/06/2021 16:15:11 -80.10, 148.63 93.27 2.76 54
7 03/06/2021 17:05:15 80.08, -44.09 86.69 03/06/2021 17:04:38 80.07, -44.05 86.67 1.46 37
8 03/08/2021 22:38:30 -80.09, 52.56 94.17 03/08/2021 22:38:21 -80.08, 52.60 94.18 1.49 9
9 03/11/2021 04:11:39 80.08, 149.39 84.99 03/11/2021 04:12:02 80.11, 149.42 85.01 2.38 23



Historial Predications of SNOs between NOAA-19 and TERRA
